When you browse on this site, cookies collect data to enhance your experience and personalize the content and advertising you see.
Visit our Privacy Policy to learn more. By continuing to use the site, you agree to this use of cookies and data.
  • In Lithuania
  • List of Countries
  • For 7 days
  • Water Temperature
  • Satellite Maps
  • Weather Map
  • Weather Widgets
  • user-avatar
    Login

    Hourly Weather Viedma

    Today, 22 February, Friday

    Time Temperature Precipitation Wind Pressure Humidity
    00:00 +19°C° 0 mm 5 mps 757 mmHg 54%
    01:00 +19°C° 0 mm 5 mps 757 mmHg 55%
    02:00 +19°C° 0 mm 5 mps 756 mmHg 62%
    03:00 +19°C° 0 mm 4 mps 756 mmHg 63%
    04:00 +18°C° 0 mm 4 mps 756 mmHg 64%
    05:00 +18°C° 0 mm 3 mps 756 mmHg 66%
    06:00 +19°C° 0 mm 4 mps 757 mmHg 62%
    07:00 +20°C° 0 mm 4 mps 757 mmHg 59%
    08:00 +20°C° 0 mm 5 mps 757 mmHg 56%
    09:00 +21°C° 0 mm 4 mps 758 mmHg 52%
    10:00 +22°C° 0 mm 4 mps 758 mmHg 48%
    11:00 +24°C° 0 mm 3 mps 758 mmHg 45%
    12:00 +25°C° 0 mm 3 mps 758 mmHg 44%
    13:00 +25°C° 0 mm 3 mps 758 mmHg 43%
    14:00 +25°C° 0 mm 3 mps 757 mmHg 42%
    15:00 +25°C° 0 mm 3 mps 757 mmHg 43%
    16:00 +24°C° 0 mm 3 mps 757 mmHg 44%
    17:00 +24°C° 0 mm 3 mps 757 mmHg 46%
    18:00 +22°C° 0 mm 4 mps 757 mmHg 48%
    19:00 +21°C° 0 mm 4 mps 757 mmHg 50%
    20:00 +20°C° 0 mm 4 mps 756 mmHg 52%
    21:00 +20°C° 0 mm 5 mps 756 mmHg 55%
    22:00 +19°C° 0 mm 5 mps 756 mmHg 58%
    23:00 +19°C° 0 mm 5 mps 756 mmHg 61%

    Tomorrow, 23 February, Saturday

    Time Temperature Precipitation Wind Pressure Humidity
    00:00 +19°C° 0 mm 5 mps 755 mmHg 63%
    01:00 +17°C° 0 mm 5 mps 755 mmHg 65%
    02:00 +17°C° 0 mm 5 mps 754 mmHg 67%
    03:00 +17°C° 0 mm 5 mps 753 mmHg 68%
    04:00 +17°C° 0 mm 5 mps 752 mmHg 69%
    05:00 +17°C° 0 mm 5 mps 752 mmHg 71%
    06:00 +19°C° 0 mm 6 mps 751 mmHg 65%
    07:00 +20°C° 0 mm 6 mps 751 mmHg 60%
    08:00 +21°C° 0 mm 7 mps 750 mmHg 55%
    09:00 +23°C° 0 mm 8 mps 750 mmHg 50%
    10:00 +26°C° 0 mm 9 mps 750 mmHg 44%
    11:00 +27°C° 0 mm 10 mps 750 mmHg 39%
    12:00 +26°C° 0 mm 11 mps 750 mmHg 33%
    13:00 +24°C° 0 mm 11 mps 750 mmHg 28%
    14:00 +23°C° 0 mm 12 mps 750 mmHg 23%
    15:00 +23°C° 0 mm 12 mps 750 mmHg 23%
    16:00 +22°C° 0 mm 11 mps 750 mmHg 23%
    17:00 +22°C° 0 mm 11 mps 750 mmHg 23%
    18:00 +21°C° 0 mm 9 mps 751 mmHg 25%
    19:00 +20°C° 0 mm 8 mps 751 mmHg 27%
    20:00 +19°C° 0 mm 6 mps 751 mmHg 30%
    21:00 +17°C° 0 mm 5 mps 752 mmHg 31%
    22:00 +17°C° 0 mm 4 mps 752 mmHg 33%
    23:00 +16°C° 0 mm 3 mps 752 mmHg 35%

    Day after tomorrow, 24 February, Sunday

    Time Temperature Precipitation Wind Pressure Humidity
    00:00 +15°C° 0 mm 4 mps 752 mmHg 35%
    01:00 +15°C° 0 mm 4 mps 752 mmHg 34%
    02:00 +15°C° 0 mm 4 mps 752 mmHg 34%
    03:00 +15°C° 0 mm 6 mps 752 mmHg 36%
    04:00 +15°C° 0 mm 7 mps 753 mmHg 37%
    05:00 +15°C° 0 mm 8 mps 753 mmHg 39%
    06:00 +15°C° 0 mm 9 mps 754 mmHg 39%
    07:00 +14°C° 0 mm 10 mps 754 mmHg 40%
    08:00 +14°C° 0 mm 11 mps 755 mmHg 41%
    09:00 +16°C° 0 mm 11 mps 755 mmHg 40%
    10:00 +16°C° 0 mm 11 mps 755 mmHg 38%
    11:00 +17°C° 0 mm 11 mps 756 mmHg 37%
    12:00 +17°C° 0 mm 11 mps 756 mmHg 36%
    13:00 +17°C° 0 mm 11 mps 756 mmHg 35%
    14:00 +17°C° 0 mm 11 mps 756 mmHg 35%
    15:00 +17°C° 0 mm 11 mps 756 mmHg 33%
    16:00 +16°C° 0 mm 11 mps 756 mmHg 31%
    17:00 +16°C° 0 mm 11 mps 756 mmHg 30%
    18:00 +14°C° 0 mm 10 mps 756 mmHg 32%
    19:00 +13°C° 0 mm 9 mps 757 mmHg 35%
    20:00 +12°C° 0 mm 8 mps 757 mmHg 38%
    21:00 +12°C° 0 mm 8 mps 757 mmHg 41%
    22:00 +11°C° 0 mm 9 mps 758 mmHg 44%
    23:00 +11°C° 0 mm 9 mps 758 mmHg 47%

    25 February, Monday

    Time Temperature Precipitation Wind Pressure Humidity
    00:00 +11°C° 0 mm 8 mps 758 mmHg 47%
    01:00 +10°C° 0 mm 8 mps 758 mmHg 48%
    02:00 +10°C° 0 mm 7 mps 758 mmHg 48%
    03:00 +10°C° 0.1 mm 7 mps 758 mmHg 50%
    04:00 +10°C° 0.1 mm 7 mps 758 mmHg 53%
    05:00 +10°C° 0.1 mm 7 mps 758 mmHg 55%
    06:00 +10°C° 0 mm 8 mps 758 mmHg 50%
    07:00 +11°C° 0 mm 9 mps 758 mmHg 45%
    08:00 +12°C° 0 mm 10 mps 758 mmHg 40%
    09:00 +13°C° 0 mm 10 mps 759 mmHg 37%
    10:00 +14°C° 0 mm 10 mps 759 mmHg 34%
    11:00 +16°C° 0 mm 10 mps 759 mmHg 32%
    12:00 +16°C° 0 mm 10 mps 758 mmHg 30%
    13:00 +17°C° 0 mm 11 mps 758 mmHg 28%
    14:00 +17°C° 0 mm 11 mps 758 mmHg 26%
    15:00 +17°C° 0 mm 10 mps 757 mmHg 26%
    16:00 +17°C° 0 mm 10 mps 757 mmHg 27%
    17:00 +17°C° 0 mm 9 mps 756 mmHg 27%
    18:00 +16°C° 0 mm 7 mps 756 mmHg 31%
    19:00 +15°C° 0 mm 5 mps 756 mmHg 35%
    20:00 +14°C° 0 mm 3 mps 757 mmHg 38%
    21:00 +14°C° 0 mm 3 mps 757 mmHg 42%
    22:00 +14°C° 0 mm 3 mps 757 mmHg 46%
    23:00 +13°C° 0 mm 3 mps 757 mmHg 49%

    26 February, Tuesday

    Time Temperature Precipitation Wind Pressure Humidity
    00:00 +14°C° 0 mm 3 mps 757 mmHg 49%
    01:00 +14°C° 0 mm 3 mps 757 mmHg 49%
    02:00 +16°C° 0 mm 3 mps 757 mmHg 49%
    03:00 +16°C° 0 mm 3 mps 757 mmHg 50%
    04:00 +16°C° 0 mm 3 mps 757 mmHg 51%
    05:00 +15°C° 0 mm 4 mps 758 mmHg 52%
    06:00 +15°C° 0 mm 4 mps 758 mmHg 50%
    07:00 +16°C° 0 mm 5 mps 758 mmHg 49%
    08:00 +17°C° 0 mm 6 mps 758 mmHg 47%
    09:00 +19°C° 0 mm 6 mps 758 mmHg 43%
    10:00 +20°C° 0 mm 6 mps 758 mmHg 39%
    11:00 +21°C° 0 mm 6 mps 758 mmHg 35%
    12:00 +22°C° 0 mm 6 mps 757 mmHg 34%
    13:00 +22°C° 0 mm 6 mps 757 mmHg 32%
    14:00 +23°C° 0 mm 6 mps 756 mmHg 31%
    15:00 +23°C° 0 mm 6 mps 756 mmHg 31%
    16:00 +22°C° 0 mm 6 mps 756 mmHg 31%
    17:00 +22°C° 0 mm 6 mps 755 mmHg 32%
    18:00 +21°C° 0 mm 4 mps 755 mmHg 35%
    19:00 +20°C° 0 mm 3 mps 756 mmHg 38%
    20:00 +19°C° 0 mm 2 mps 756 mmHg 41%
    21:00 +19°C° 0 mm 2 mps 756 mmHg 42%
    22:00 +19°C° 0 mm 1 mps 756 mmHg 43%
    23:00 +19°C° 0 mm 1 mps 756 mmHg 44%

    27 February, Wednesday

    Time Temperature Precipitation Wind Pressure Humidity
    00:00 +18°C° 0.1 mm 2 mps 756 mmHg 52%
    01:00 +17°C° 0.1 mm 2 mps 756 mmHg 59%
    02:00 +17°C° 0.1 mm 2 mps 756 mmHg 66%
    03:00 +16°C° 1 mm 3 mps 756 mmHg 69%
    04:00 +15°C° 1 mm 5 mps 756 mmHg 71%
    05:00 +15°C° 1 mm 6 mps 757 mmHg 74%
    06:00 +15°C° 0.9 mm 6 mps 757 mmHg 68%
    07:00 +16°C° 0.9 mm 6 mps 758 mmHg 63%
    08:00 +16°C° 0.9 mm 6 mps 758 mmHg 58%
    09:00 +17°C° 0 mm 7 mps 758 mmHg 53%
    10:00 +17°C° 0 mm 8 mps 759 mmHg 47%
    11:00 +18°C° 0 mm 9 mps 759 mmHg 42%
    12:00 +18°C° 0 mm 9 mps 759 mmHg 43%
    13:00 +18°C° 0 mm 9 mps 759 mmHg 44%
    14:00 +19°C° 0 mm 9 mps 759 mmHg 45%
    15:00 +18°C° 0 mm 8 mps 759 mmHg 47%
    16:00 +18°C° 0 mm 8 mps 759 mmHg 49%
    17:00 +17°C° 0 mm 7 mps 759 mmHg 51%
    18:00 +17°C° 0 mm 6 mps 760 mmHg 54%
    19:00 +16°C° 0 mm 5 mps 760 mmHg 58%
    20:00 +15°C° 0 mm 4 mps 760 mmHg 61%
    21:00 +15°C° 0 mm 4 mps 761 mmHg 63%
    22:00 +16°C° 0 mm 3 mps 761 mmHg 65%
    23:00 +15°C° 0 mm 2 mps 761 mmHg 67%
    Show more